Pittsburgh, PA

7:25 PM EDT on May 29, 2017 (GMT -0400)
Pittsburgh International

Weather History for KPIT - March, 2013

Change the Weather History Date:

Friday, March 15, 2013

  Actual Average Record
Temperature  
Mean Temperature 39 °F 39 °F  
Max Temperature 50 °F 49 °F 80 °F (1990)
Min Temperature 27 °F 30 °F 1 °F (1993)
Degree Days  
Heating Degree Days 26 26  
Month to date heating degree days 427 425  
Since 1 July heating degree days 4539 4682  
Cooling Degree Days 0 0  
Month to date cooling degree days 0 0  
Year to date cooling degree days 0 0  
Moisture  
Dew Point 25 °F    
Average Humidity 64    
Maximum Humidity 85    
Minimum Humidity 42    
Precipitation  
Precipitation 0.01 in 0.10 in 1.26 in (2007)
Month to date precipitation 0.64 1.36  
Year to date precipitation 5.21 6.45  
Snow  
Snow 0.00 in 0.30 in 7.30 in (1906)
Month to date snowfall 7.7 4.6  
Since 1 July snowfall 49.9 37.4  
Snow Depth 0.00 in    
Sea Level Pressure  
Sea Level Pressure 29.97 in    
Wind  
Wind Speed 9 mph (West)    
Max Wind Speed 17 mph    
Max Gust Speed 24 mph    
Visibility 10 miles    
Events Rain    
T = Trace of Precipitation, MM = Missing Value Source: NWS Daily Summary

Daily Weather History Graph

Daily Weather History Graph

Search for Another Location

Airport or City:

Trip Planner

Search our weather history database for the weather conditions in past years. The results will help you decide how hot, cold, wet, or windy it might be!

Date:

Astronomy

Mar. 15, 2013 Rise Set
Actual Time 7:32 AM EDT 7:27 PM EDT
Civil Twilight 7:04 AM EDT 7:55 PM EDT
Nautical Twilight 6:33 AM EDT 8:26 PM EDT
Astronomical Twilight 6:01 AM EDT 8:59 PM EDT
Moon 9:20 AM EDT (3/15) 11:41 PM EDT (3/15)
Length of Visible Light 12h 50m
Length of Day
11h 55m
Waxing Crescent, 15% of the Moon is Illuminated
Mar 15
Waxing Crescent
Mar 19
First Quarter
Mar 27
Full
Apr 3
Last Quarter
Apr 10
New

Hourly Weather History & Observations

Time (EDT) Temp. Windchill Dew Point Humidity Pressure Visibility Wind Dir Wind Speed Gust Speed Precip Events Conditions
12:51 AM 30.0 °F 26.5 °F 18.0 °F 61% 30.14 in 10.0 mi SW 3.5 mph - N/A   Clear
1:51 AM 28.0 °F - 18.0 °F 66% 30.14 in 10.0 mi Calm Calm - N/A   Partly Cloudy
2:51 AM 28.4 °F 23.3 °F 17.6 °F 64% 30.06 in 10.0 mi SW 4.6 mph - N/A   Scattered Clouds
3:51 AM 28.9 °F 23.9 °F 18.0 °F 64% 30.10 in 10.0 mi SW 4.6 mph - N/A   Mostly Cloudy
4:51 AM 28.9 °F 25.2 °F 18.0 °F 64% 30.07 in 10.0 mi SW 3.5 mph - N/A   Overcast
5:51 AM 30.0 °F 23.2 °F 18.0 °F 61% 30.06 in 10.0 mi SW 6.9 mph - N/A   Overcast
6:51 AM 30.0 °F 23.2 °F 18.0 °F 61% 30.06 in 10.0 mi SW 6.9 mph - N/A   Overcast
7:51 AM 30.9 °F 25.2 °F 19.0 °F 61% 30.04 in 10.0 mi SW 5.8 mph - N/A   Overcast
8:51 AM 32.0 °F 24.8 °F 18.0 °F 56% 30.04 in 10.0 mi SW 8.1 mph - N/A   Overcast
9:51 AM 35.1 °F 27.9 °F 19.9 °F 54% 30.01 in 10.0 mi SW 9.2 mph - N/A   Overcast
10:51 AM 37.9 °F 30.9 °F 24.1 °F 57% 30.00 in 10.0 mi WSW 10.4 mph 16.1 mph N/A   Overcast
11:51 AM 39.0 °F 31.8 °F 26.1 °F 60% 29.98 in 10.0 mi WSW 11.5 mph 21.9 mph N/A   Overcast
12:18 PM 39.2 °F 30.5 °F 24.8 °F 56% 29.91 in 10.0 mi WSW 16.1 mph 24.2 mph N/A   Overcast
12:51 PM 42.1 °F 35.2 °F 25.0 °F 51% 29.95 in 10.0 mi West 12.7 mph 21.9 mph N/A   Overcast
1:51 PM 45.0 °F 38.9 °F 26.1 °F 48% 29.91 in 10.0 mi West 12.7 mph 21.9 mph N/A   Overcast
2:51 PM 46.9 °F - 27.0 °F 46% 29.89 in 10.0 mi West 17.3 mph 24.2 mph N/A   Overcast
3:51 PM 50.0 °F - 28.9 °F 44% 29.86 in 10.0 mi WSW 12.7 mph 19.6 mph N/A   Overcast
4:51 PM 48.9 °F - 28.9 °F 46% 29.86 in 10.0 mi West 15.0 mph 20.7 mph N/A   Overcast
5:51 PM 48.9 °F - 30.0 °F 48% 29.85 in 10.0 mi WNW 13.8 mph - N/A   Overcast
6:51 PM 48.0 °F - 30.0 °F 50% 29.87 in 10.0 mi West 10.4 mph - N/A   Overcast
7:51 PM 46.9 °F - 30.9 °F 54% 29.87 in 10.0 mi NW 6.9 mph - N/A   Overcast
8:51 PM 45.0 °F 41.2 °F 30.9 °F 58% 29.89 in 10.0 mi NW 6.9 mph - N/A   Overcast
9:51 PM 44.1 °F 40.8 °F 33.1 °F 65% 29.89 in 9.0 mi NNW 5.8 mph - 0.00 in   Overcast
10:51 PM 42.1 °F 37.7 °F 35.1 °F 76% 29.89 in 7.0 mi North 6.9 mph - 0.00 in Rain Light Rain
11:37 PM 41.0 °F 38.0 °F 35.6 °F 81% 29.85 in 5.0 mi NNW 4.6 mph - 0.01 in Rain Light Rain
11:51 PM 39.9 °F 35.8 °F 36.0 °F 86% 29.88 in 4.0 mi North 5.8 mph - 0.01 in Rain Light Rain